Salem, OR

12:38 AM PDT on May 25, 2017 (GMT -0700)
McNary

Weather History for KSLE - November, 2013

Change the Weather History Date:

Thursday, November 7, 2013

  Actual Average Record
Temperature  
Mean Temperature 53 °F 47 °F  
Max Temperature 57 °F 55 °F 68 °F (1941)
Min Temperature 48 °F 40 °F 21 °F (1936)
Degree Days  
Heating Degree Days 12 18  
Month to date heating degree days 99 118  
Since 1 July heating degree days 569 650  
Cooling Degree Days 0 0  
Month to date cooling degree days 0 0  
Year to date cooling degree days 502 290  
Growing Degree Days 2 (Base 50)    
Moisture  
Dew Point 49 °F    
Average Humidity 83    
Maximum Humidity 100    
Minimum Humidity 66    
Precipitation  
Precipitation 0.43 in 0.20 in 1.61 in (1924)
Month to date precipitation 1.32 1.24  
Year to date precipitation 20.97 27.55  
Snow  
Snow 0.00 in - - ()
Month to date snowfall 0.0  
Snow Depth 0.00 in    
Sea Level Pressure  
Sea Level Pressure 30.03 in    
Wind  
Wind Speed 10 mph (South)    
Max Wind Speed 23 mph    
Max Gust Speed 31 mph    
Visibility 8 miles    
Events Rain    
T = Trace of Precipitation, MM = Missing Value Source: NWS Daily Summary

Daily Weather History Graph

Daily Weather History Graph

Search for Another Location

Airport or City:

Trip Planner

Search our weather history database for the weather conditions in past years. The results will help you decide how hot, cold, wet, or windy it might be!

Date:

Astronomy

Nov. 07, 2013 Rise Set
Actual Time 6:58 AM PST 4:51 PM PST
Civil Twilight 6:27 AM PST 5:22 PM PST
Nautical Twilight 5:52 AM PST 5:57 PM PST
Astronomical Twilight 5:18 AM PST 6:32 PM PST
Moon 11:14 AM PST (11/7) 9:08 PM PST (11/7)
Length of Visible Light 10h 55m
Length of Day
9h 52m
Waxing Crescent, 24% of the Moon is Illuminated
Nov 7
Waxing Crescent
Nov 9
First Quarter
Nov 17
Full
Nov 25
Last Quarter
Dec 2
New

Hourly Weather History & Observations

Time (PST) Temp. Dew Point Humidity Pressure Visibility Wind Dir Wind Speed Gust Speed Precip Events Conditions
12:03 AM 53.6 °F 51.8 °F 94% 30.08 in 2.0 mi SE 3.5 mph - N/A   Overcast
12:16 AM 53.6 °F 51.8 °F 94% 30.08 in 4.0 mi SE 3.5 mph - N/A   Overcast
12:37 AM 53.6 °F 51.8 °F 94% 30.07 in 5.0 mi SE 5.8 mph - N/A   Overcast
12:56 AM 54.0 °F 53.1 °F 97% 30.07 in 8.0 mi SSW 3.5 mph - N/A   Overcast
1:56 AM 55.0 °F 54.0 °F 96% 30.04 in 10.0 mi SSE 8.1 mph - N/A   Overcast
2:28 AM 55.4 °F 53.6 °F 94% 30.02 in 7.0 mi SSE 8.1 mph - N/A   Overcast
2:56 AM 55.9 °F 54.0 °F 93% 30.01 in 9.0 mi SSE 8.1 mph - N/A   Overcast
3:49 AM 57.2 °F 55.4 °F 94% 29.99 in 10.0 mi South 10.4 mph - N/A   Overcast
3:56 AM 57.0 °F 55.0 °F 93% 29.99 in 10.0 mi South 10.4 mph - N/A   Overcast
4:11 AM 57.2 °F 55.4 °F 94% 29.99 in 10.0 mi South 12.7 mph 19.6 mph N/A   Overcast
4:56 AM 57.0 °F 55.0 °F 93% 29.99 in 10.0 mi South 9.2 mph - 0.00 in   Overcast
5:20 AM 57.2 °F 53.6 °F 88% 29.96 in 7.0 mi South 12.7 mph - 0.00 in Rain Light Rain
5:56 AM 57.0 °F 54.0 °F 89% 29.96 in 10.0 mi South 11.5 mph - 0.01 in   Overcast
6:56 AM 55.9 °F 54.0 °F 93% 29.94 in 10.0 mi South 16.1 mph 21.9 mph 0.00 in   Overcast
7:56 AM 57.0 °F 53.1 °F 87% 29.92 in 10.0 mi South 15.0 mph - 0.00 in   Overcast
8:36 AM 53.6 °F 48.2 °F 82% 29.97 in 1.5 mi West 23.0 mph 31.1 mph 0.08 in Rain Rain
8:43 AM 48.2 °F 44.6 °F 87% 29.97 in 1.0 mi West 12.7 mph 31.1 mph 0.26 in Rain Heavy Rain
8:48 AM 48.2 °F 46.4 °F 93% 29.96 in 2.0 mi Variable 5.8 mph 17.3 mph 0.29 in Rain Heavy Rain
8:56 AM 48.9 °F 46.0 °F 90% 29.97 in 4.0 mi SW 8.1 mph - 0.32 in Rain Rain
9:03 AM 50.0 °F 46.4 °F 87% 29.96 in 8.0 mi WSW 9.2 mph - 0.01 in Rain Light Rain
9:56 AM 50.0 °F 46.9 °F 89% 29.96 in 10.0 mi South 8.1 mph - 0.06 in Rain Light Rain
10:56 AM 51.1 °F 48.0 °F 89% 29.99 in 10.0 mi South 10.4 mph - 0.03 in   Overcast
11:11 AM 51.8 °F 48.2 °F 88% 29.99 in 10.0 mi SSW 12.7 mph - N/A   Overcast
11:56 AM 54.0 °F 48.0 °F 80% 29.99 in 10.0 mi South 13.8 mph 20.7 mph N/A   Mostly Cloudy
12:56 PM 54.0 °F 46.9 °F 77% 30.01 in 10.0 mi SSW 13.8 mph 24.2 mph 0.00 in Rain Light Rain
1:56 PM 54.0 °F 46.0 °F 75% 30.02 in 10.0 mi SW 16.1 mph 25.3 mph 0.01 in   Overcast
2:56 PM 55.0 °F 45.0 °F 69% 30.03 in 10.0 mi SW 12.7 mph 26.5 mph N/A   Overcast
3:56 PM 53.1 °F 45.0 °F 74% 30.06 in 10.0 mi SSW 11.5 mph 19.6 mph N/A   Mostly Cloudy
4:56 PM 52.0 °F 44.1 °F 74% 30.07 in 10.0 mi SW 11.5 mph - N/A   Overcast
5:56 PM 50.0 °F 44.1 °F 80% 30.09 in 10.0 mi SSW 11.5 mph - N/A   Partly Cloudy
6:56 PM 50.0 °F 43.0 °F 77% 30.11 in 10.0 mi SSW 9.2 mph - N/A   Overcast
7:56 PM 48.9 °F 43.0 °F 80% 30.11 in 10.0 mi SSW 10.4 mph - 0.00 in Rain Light Rain
8:56 PM 48.0 °F 42.1 °F 80% 30.13 in 10.0 mi SSE 6.9 mph - 0.00 in   Mostly Cloudy
9:56 PM 46.9 °F 43.0 °F 86% 30.13 in 10.0 mi SE 6.9 mph - 0.00 in   Scattered Clouds
10:56 PM 48.0 °F 43.0 °F 83% 30.14 in 10.0 mi South 6.9 mph - N/A   Overcast
11:56 PM 48.0 °F 44.1 °F 86% 30.15 in 10.0 mi South 5.8 mph - N/A   Overcast